User: anonymous   Login
Location: Unspecified
(0.0000°N, 0.0000°E)
Time: 18:09:20
(UTC+00:00)
Language:

FLOCK 4G 5 - Orbit

View from above orbital plane
View from above orbital plane
View from above satellite
View from above satellite

Ground track
Ground track

The orbit is defined by the following mean orbital elements,

1 62663U          26145.46370880 +.00000000 +00000-0 +29019-3 0 00004
2 62663  97.4028 227.9240 0004033  52.2836 307.8769 15.30004694    09
Epoch (UTC): 25 May 2026 11:07:44
Eccentricity: 0.0004033
inclination: 97.4028°
perigee height: 473 km
apogee height: 479 km
right ascension of ascending node: 227.9240°
argument of perigee: 52.2836°
revolutions per day: 15.30004694
mean anomaly at epoch: 307.8769°

The dashed part of the orbit path shows where the satellite is in the earth's shadow,  

DLR